{"data":{"norad_id":58165,"intl_designator":"2023-166R","name":"STARLINK-30814","alt_names":[],"object_type":"PAYLOAD","status":"ACTIVE","operator":null,"country":"US","launch_date":"2023-10-29","launch_site_code":"AFWTR","launch_vehicle":null,"mission":null,"orbit_class":"UNKNOWN","rcs_meters":null,"size_class":null,"mass_kg":null,"dimensions":null,"purposes":["comms"],"wikipedia_slug":null,"has_3d_model":false,"image_url":null,"decayed_at":null,"tle_current":{"epoch":"2026-09-20T13:55:04.032192Z","epoch_age_seconds":133583,"freshness":"FRESH","line1":"1 58165U 23166R   26263.57990778 -.00000830  00000+0 -13446-4 0  9998","line2":"2 58165  53.1612  33.2588 0001106  48.5440 311.5657 15.34406281163032","mean_motion":15.34406281,"eccentricity":0.0001106,"inclination_deg":53.1612,"raan_deg":33.2588,"arg_perigee_deg":48.544,"mean_anomaly_deg":311.5657,"bstar":-1.3446e-5,"rev_number":16303,"period_min":93.847373921171,"perigee_km":461.92797694928,"apogee_km":463.44116668097,"semimajor_km":6840.8215718151,"source":"CELESTRAK","updated_at":"2026-09-21T09:00:33.824043Z"}}}